• In Netherlands
  • List of Countries
  • For 7 days
  • Water Temperature
  • Satellite Maps
  • Weather Map
  • Weather Widgets
  • user-avatar
    Login

    Hourly Weather Elbasan

    Today, 27 May, Sunday

    Time Temperature Precipitation Wind Pressure Humidity
    00:00 +19°C° 0 mm 2 mps 737 mmHg 76%
    01:00 +19°C° 0 mm 2 mps 737 mmHg 76%
    02:00 +18°C° 0.1 mm 2 mps 737 mmHg 76%
    03:00 +18°C° 0.1 mm 2 mps 737 mmHg 76%
    04:00 +18°C° 0.1 mm 2 mps 737 mmHg 76%
    05:00 +20°C° 0 mm 2 mps 737 mmHg 73%
    06:00 +21°C° 0 mm 2 mps 737 mmHg 69%
    07:00 +25°C° 0 mm 2 mps 737 mmHg 64%
    08:00 +26°C° 0 mm 2 mps 737 mmHg 57%
    09:00 +27°C° 0 mm 2 mps 737 mmHg 50%
    10:00 +29°C° 0 mm 1 mps 737 mmHg 43%
    11:00 +29°C° 0 mm 2 mps 737 mmHg 43%
    12:00 +30°C° 0 mm 2 mps 737 mmHg 42%
    13:00 +30°C° 0 mm 2 mps 737 mmHg 42%
    14:00 +30°C° 0.1 mm 3 mps 737 mmHg 43%
    15:00 +29°C° 0.1 mm 3 mps 737 mmHg 45%
    16:00 +29°C° 0.1 mm 3 mps 736 mmHg 47%
    17:00 +27°C° 0.1 mm 2 mps 736 mmHg 55%
    18:00 +25°C° 0.1 mm 2 mps 736 mmHg 63%
    19:00 +23°C° 0.1 mm 2 mps 736 mmHg 72%
    20:00 +22°C° 0 mm 1 mps 736 mmHg 73%
    21:00 +22°C° 0 mm 1 mps 737 mmHg 74%
    22:00 +21°C° 0 mm 1 mps 737 mmHg 75%
    23:00 +21°C° 0 mm 1 mps 737 mmHg 74%

    Tomorrow, 28 May, Monday

    Time Temperature Precipitation Wind Pressure Humidity
    00:00 +20°C° 0 mm 1 mps 737 mmHg 74%
    01:00 +20°C° 0 mm 1 mps 737 mmHg 74%
    02:00 +20°C° 0 mm 1 mps 737 mmHg 74%
    03:00 +20°C° 0 mm 1 mps 737 mmHg 74%
    04:00 +19°C° 0 mm 1 mps 737 mmHg 73%
    05:00 +21°C° 0 mm 1 mps 737 mmHg 70%
    06:00 +23°C° 0 mm 1 mps 737 mmHg 67%
    07:00 +25°C° 0 mm 1 mps 737 mmHg 64%
    08:00 +26°C° 0 mm 1 mps 737 mmHg 59%
    09:00 +27°C° 0 mm 1 mps 737 mmHg 54%
    10:00 +29°C° 0 mm 1 mps 737 mmHg 49%
    11:00 +29°C° 0.1 mm 2 mps 737 mmHg 48%
    12:00 +30°C° 0.1 mm 2 mps 737 mmHg 48%
    13:00 +30°C° 0.1 mm 2 mps 737 mmHg 47%
    14:00 +30°C° 0.3 mm 2 mps 737 mmHg 50%
    15:00 +29°C° 0.3 mm 2 mps 736 mmHg 53%
    16:00 +28°C° 0.3 mm 3 mps 736 mmHg 55%
    17:00 +27°C° 0.1 mm 2 mps 736 mmHg 62%
    18:00 +25°C° 0.1 mm 1 mps 736 mmHg 68%
    19:00 +23°C° 0.1 mm 1 mps 736 mmHg 74%
    20:00 +23°C° 0 mm 1 mps 736 mmHg 75%
    21:00 +22°C° 0 mm 1 mps 736 mmHg 76%
    22:00 +22°C° 0 mm 1 mps 737 mmHg 77%
    23:00 +21°C° 0 mm 1 mps 737 mmHg 77%

    Day after tomorrow, 29 May, Tuesday

    Time Temperature Precipitation Wind Pressure Humidity
    00:00 +21°C° 0 mm 1 mps 736 mmHg 77%
    01:00 +21°C° 0 mm 1 mps 736 mmHg 77%
    02:00 +20°C° 0 mm 1 mps 736 mmHg 78%
    03:00 +20°C° 0 mm 1 mps 736 mmHg 78%
    04:00 +20°C° 0 mm 1 mps 736 mmHg 78%
    05:00 +21°C° 0 mm 1 mps 736 mmHg 74%
    06:00 +23°C° 0 mm 1 mps 736 mmHg 70%
    07:00 +25°C° 0 mm 1 mps 736 mmHg 66%
    08:00 +26°C° 0 mm 1 mps 736 mmHg 61%
    09:00 +28°C° 0 mm 1 mps 736 mmHg 57%
    10:00 +29°C° 0 mm 1 mps 736 mmHg 53%
    11:00 +29°C° 0.1 mm 1 mps 736 mmHg 52%
    12:00 +30°C° 0.1 mm 2 mps 736 mmHg 51%
    13:00 +30°C° 0.1 mm 3 mps 735 mmHg 51%
    14:00 +29°C° 0.5 mm 3 mps 735 mmHg 53%
    15:00 +29°C° 0.5 mm 2 mps 735 mmHg 56%
    16:00 +28°C° 0.5 mm 2 mps 734 mmHg 59%
    17:00 +26°C° 0.2 mm 2 mps 734 mmHg 65%
    18:00 +25°C° 0.2 mm 1 mps 734 mmHg 70%
    19:00 +23°C° 0.2 mm 1 mps 734 mmHg 76%
    20:00 +23°C° 0 mm 1 mps 734 mmHg 77%
    21:00 +22°C° 0 mm 1 mps 734 mmHg 77%
    22:00 +22°C° 0 mm 1 mps 734 mmHg 78%
    23:00 +22°C° 0 mm 1 mps 734 mmHg 78%

    30 May, Wednesday

    Time Temperature Precipitation Wind Pressure Humidity
    00:00 +21°C° 0 mm 1 mps 734 mmHg 79%
    01:00 +21°C° 0 mm 1 mps 734 mmHg 79%
    02:00 +21°C° 0.1 mm 1 mps 734 mmHg 79%
    03:00 +20°C° 0.1 mm 1 mps 734 mmHg 80%
    04:00 +20°C° 0.1 mm 1 mps 734 mmHg 80%
    05:00 +22°C° 0.1 mm 1 mps 734 mmHg 76%
    06:00 +23°C° 0.1 mm 1 mps 734 mmHg 72%
    07:00 +25°C° 0.1 mm 1 mps 734 mmHg 68%
    08:00 +26°C° 0.3 mm 1 mps 734 mmHg 64%
    09:00 +27°C° 0.3 mm 1 mps 734 mmHg 60%
    10:00 +29°C° 0.3 mm 1 mps 734 mmHg 56%
    11:00 +29°C° 0.5 mm 2 mps 734 mmHg 56%
    12:00 +29°C° 0.5 mm 2 mps 734 mmHg 55%
    13:00 +29°C° 0.5 mm 3 mps 734 mmHg 55%
    14:00 +29°C° 0.8 mm 3 mps 734 mmHg 58%
    15:00 +28°C° 0.8 mm 2 mps 733 mmHg 61%
    16:00 +28°C° 0.8 mm 2 mps 733 mmHg 63%
    17:00 +26°C° 0.1 mm 2 mps 733 mmHg 69%
    18:00 +24°C° 0.1 mm 1 mps 733 mmHg 74%
    19:00 +23°C° 0.1 mm 1 mps 733 mmHg 80%
    20:00 +22°C° 0.1 mm 1 mps 733 mmHg 81%
    21:00 +22°C° 0.1 mm 1 mps 733 mmHg 83%
    22:00 +21°C° 0.1 mm 1 mps 734 mmHg 85%
    23:00 +21°C° 0 mm 1 mps 733 mmHg 84%

    31 May, Thursday

    Time Temperature Precipitation Wind Pressure Humidity
    00:00 +20°C° 0 mm 1 mps 733 mmHg 83%
    01:00 +20°C° 0 mm 1 mps 733 mmHg 82%
    02:00 +20°C° 0 mm 1 mps 733 mmHg 80%
    03:00 +19°C° 0 mm 1 mps 733 mmHg 78%
    04:00 +19°C° 0 mm 1 mps 733 mmHg 77%
    05:00 +21°C° 0 mm 1 mps 733 mmHg 71%
    06:00 +23°C° 0 mm 1 mps 733 mmHg 66%
    07:00 +25°C° 0 mm 1 mps 733 mmHg 60%
    08:00 +26°C° 0 mm 1 mps 733 mmHg 57%
    09:00 +27°C° 0 mm 2 mps 733 mmHg 55%
    10:00 +28°C° 0 mm 2 mps 733 mmHg 52%
    11:00 +29°C° 0 mm 3 mps 733 mmHg 52%
    12:00 +29°C° 0 mm 3 mps 733 mmHg 52%
    13:00 +30°C° 0 mm 4 mps 733 mmHg 52%
    14:00 +29°C° 0.3 mm 3 mps 733 mmHg 54%
    15:00 +28°C° 0.3 mm 3 mps 732 mmHg 56%
    16:00 +28°C° 0.3 mm 3 mps 732 mmHg 59%
    17:00 +26°C° 0.1 mm 2 mps 732 mmHg 65%
    18:00 +24°C° 0.1 mm 2 mps 732 mmHg 72%
    19:00 +23°C° 0.1 mm 1 mps 732 mmHg 79%
    20:00 +22°C° 0 mm 1 mps 732 mmHg 80%
    21:00 +21°C° 0 mm 1 mps 733 mmHg 82%
    22:00 +18°C° 0 mm 0 mps 733 mmHg 84%
    23:00 +20°C° 0 mm 1 mps 733 mmHg 84%

    1 June, Friday

    Time Temperature Precipitation Wind Pressure Humidity
    00:00 +20°C° 0 mm 1 mps 732 mmHg 84%
    01:00 +19°C° 0 mm 1 mps 732 mmHg 84%
    02:00 +19°C° 0 mm 1 mps 732 mmHg 83%
    03:00 +19°C° 0 mm 1 mps 732 mmHg 83%
    04:00 +19°C° 0 mm 1 mps 732 mmHg 82%
    05:00 +20°C° 0 mm 1 mps 732 mmHg 77%
    06:00 +22°C° 0 mm 1 mps 732 mmHg 72%
    07:00 +24°C° 0 mm 1 mps 733 mmHg 66%
    08:00 +25°C° 0 mm 1 mps 733 mmHg 61%
    09:00 +26°C° 0 mm 2 mps 733 mmHg 56%
    10:00 +28°C° 0 mm 2 mps 733 mmHg 51%
    11:00 +28°C° 0 mm 3 mps 732 mmHg 50%
    12:00 +29°C° 0 mm 3 mps 732 mmHg 50%
    13:00 +29°C° 0 mm 3 mps 732 mmHg 49%
    14:00 +29°C° 0.1 mm 3 mps 732 mmHg 52%
    15:00 +29°C° 0.1 mm 3 mps 732 mmHg 54%
    16:00 +28°C° 0.1 mm 3 mps 731 mmHg 57%
    17:00 +26°C° 0 mm 2 mps 731 mmHg 64%
    18:00 +24°C° 0 mm 2 mps 731 mmHg 71%
    19:00 +22°C° 0 mm 1 mps 731 mmHg 79%
    20:00 +22°C° 0 mm 1 mps 732 mmHg 79%
    21:00 +21°C° 0 mm 1 mps 732 mmHg 79%
    22:00 +20°C° 0 mm 1 mps 732 mmHg 79%
    23:00 +20°C° 0 mm 1 mps 732 mmHg 77%
    Show more